User: anonymous   Login
Location: Strohbehn Observatory
(42.4649°N, 93.8239°W)
Time: 17:33:51
(UTC-05:00)
Language:

SL-16 R/B - Orbit

View from above orbital plane
View from above orbital plane
View from above satellite
View from above satellite

Ground track
Ground track

The orbit data is extracted from the following two-line orbital elements,

1 31793U 07029B   15090.85005147 -.00000170  00000-0 -63916-4 0  9995
2 31793 070.9752 287.0014 0002957 272.6907 178.2000 14.14322588400429
Epoch (UTC): 31 March 2015 20:24:04
Eccentricity: 0.0002957
inclination: 70.9752°
perigee height: 842 km
apogee height: 847 km
right ascension of ascending node: 287.0014°
argument of perigee: 272.6907°
revolutions per day: 14.14322588
mean anomaly at epoch: 178.2000°
orbit number at epoch: 40042

The dashed part of the orbit path shows where the satellite is in the earth's shadow,  

DLR